Location: Brabourne
(51.1333°N, 1.0000°E)
Time: 05:39:34
(UTC+00:00)

NOSS 3-1 (A) - Pass Details

Date: 23 October 2021
Orbit: 721 x 1491 km, 63.4° (Epoch: 22 November)

Event Time Altitude Azimuth Distance (km) Brightness Sun altitude
Exits shadow 02:55:12 53° 154° (SSE) 1,582 4.4 -34.1°
Drops below altitude 10° 03:01:37 10° 145° (SE) 3,510 6.5 -33.2°
Sets 03:04:42 0° 144° (SE) 4,543 7.1 -32.7°
